地点,時刻,積雪(cm)
前田野目,2022/02/26 23:00,145
前田野目,2022/02/27 00:00,145
前田野目,2022/02/27 01:00,145
前田野目,2022/02/27 02:00,145
前田野目,2022/02/27 03:00,144
前田野目,2022/02/27 04:00,144
前田野目,2022/02/27 05:00,144
前田野目,2022/02/27 06:00,144
前田野目,2022/02/27 07:00,144
前田野目,2022/02/27 08:00,144
前田野目,2022/02/27 09:00,144
前田野目,2022/02/27 10:00,143
前田野目,2022/02/27 11:00,144
前田野目,2022/02/27 12:00,146
前田野目,2022/02/27 13:00,145
前田野目,2022/02/27 14:00,145
前田野目,2022/02/27 15:00,144
前田野目,2022/02/27 16:00,144
前田野目,2022/02/27 17:00,144
前田野目,2022/02/27 18:00,144
前田野目,2022/02/27 19:00,144
前田野目,2022/02/27 20:00,144
前田野目,2022/02/27 21:00,144
前田野目,2022/02/27 22:00,144
前田野目,2022/02/27 23:00,144
前田野目,2022/02/28 00:00,144
前田野目,2022/02/28 01:00,144
前田野目,2022/02/28 02:00,145
前田野目,2022/02/28 03:00,145
前田野目,2022/02/28 04:00,145
前田野目,2022/02/28 05:00,145
前田野目,2022/02/28 06:00,144
前田野目,2022/02/28 07:00,144
前田野目,2022/02/28 08:00,144
前田野目,2022/02/28 09:00,144
前田野目,2022/02/28 10:00,144
前田野目,2022/02/28 11:00,144
前田野目,2022/02/28 12:00,143
前田野目,2022/02/28 13:00,143
前田野目,2022/02/28 14:00,142
前田野目,2022/02/28 15:00,142
前田野目,2022/02/28 16:00,142
前田野目,2022/02/28 17:00,142
前田野目,2022/02/28 18:00,141
前田野目,2022/02/28 19:00,141
前田野目,2022/02/28 20:00,141
前田野目,2022/02/28 21:00,141
前田野目,2022/02/28 22:00,141
前田野目,2022/02/28 23:00,141
前田野目,2022/03/01 00:00,141
前田野目,2022/03/01 01:00,141
前田野目,2022/03/01 02:00,141
前田野目,2022/03/01 03:00,141
前田野目,2022/03/01 04:00,141
前田野目,2022/03/01 05:00,141
前田野目,2022/03/01 06:00,141
前田野目,2022/03/01 07:00,141
前田野目,2022/03/01 08:00,141
前田野目,2022/03/01 09:00,141
前田野目,2022/03/01 10:00,141
前田野目,2022/03/01 11:00,140
前田野目,2022/03/01 12:00,140
前田野目,2022/03/01 13:00,140
前田野目,2022/03/01 14:00,140
前田野目,2022/03/01 15:00,140
前田野目,2022/03/01 16:00,140
前田野目,2022/03/01 17:00,139
前田野目,2022/03/01 18:00,139
前田野目,2022/03/01 19:00,139
前田野目,2022/03/01 20:00,139
前田野目,2022/03/01 21:00,139
前田野目,2022/03/01 22:00,138
前田野目,2022/03/01 23:00,138
前田野目,2022/03/02 00:00,138
前田野目,2022/03/02 01:00,138
前田野目,2022/03/02 02:00,139
前田野目,2022/03/02 03:00,139
前田野目,2022/03/02 04:00,139
前田野目,2022/03/02 05:00,139
前田野目,2022/03/02 06:00,139
前田野目,2022/03/02 07:00,139
前田野目,2022/03/02 08:00,138
前田野目,2022/03/02 09:00,138
前田野目,2022/03/02 10:00,138
前田野目,2022/03/02 11:00,137
前田野目,2022/03/02 12:00,137
前田野目,2022/03/02 13:00,136
前田野目,2022/03/02 14:00,136
前田野目,2022/03/02 15:00,136
前田野目,2022/03/02 16:00,135
前田野目,2022/03/02 17:00,136
前田野目,2022/03/02 18:00,136
前田野目,2022/03/02 19:00,136
前田野目,2022/03/02 20:00,136
前田野目,2022/03/02 21:00,136
前田野目,2022/03/02 22:00,136
前田野目,2022/03/02 23:00,136
前田野目,2022/03/03 00:00,136
前田野目,2022/03/03 01:00,135
前田野目,2022/03/03 02:00,135
前田野目,2022/03/03 03:00,135
前田野目,2022/03/03 04:00,135
前田野目,2022/03/03 05:00,135
前田野目,2022/03/03 06:00,138
前田野目,2022/03/03 07:00,138
前田野目,2022/03/03 08:00,141
前田野目,2022/03/03 09:00,142
前田野目,2022/03/03 10:00,141
前田野目,2022/03/03 11:00,140
前田野目,2022/03/03 12:00,138
前田野目,2022/03/03 13:00,138
前田野目,2022/03/03 14:00,137
前田野目,2022/03/03 15:00,137
前田野目,2022/03/03 16:00,137
前田野目,2022/03/03 17:00,137
前田野目,2022/03/03 18:00,137
前田野目,2022/03/03 19:00,137
前田野目,2022/03/03 20:00,137
前田野目,2022/03/03 21:00,137
前田野目,2022/03/03 22:00,138
前田野目,2022/03/03 23:00,138
前田野目,2022/03/04 00:00,138
前田野目,2022/03/04 01:00,138
前田野目,2022/03/04 02:00,138
前田野目,2022/03/04 03:00,137
前田野目,2022/03/04 04:00,137
前田野目,2022/03/04 05:00,137
前田野目,2022/03/04 06:00,137
前田野目,2022/03/04 07:00,137
前田野目,2022/03/04 08:00,138
前田野目,2022/03/04 09:00,137
前田野目,2022/03/04 10:00,137
前田野目,2022/03/04 11:00,137
前田野目,2022/03/04 12:00,136
前田野目,2022/03/04 13:00,136
前田野目,2022/03/04 14:00,136
前田野目,2022/03/04 15:00,135
前田野目,2022/03/04 16:00,135
前田野目,2022/03/04 17:00,135
前田野目,2022/03/04 18:00,136
前田野目,2022/03/04 19:00,136
前田野目,2022/03/04 20:00,136
前田野目,2022/03/04 21:00,136
前田野目,2022/03/04 22:00,136
前田野目,2022/03/04 23:00,136
前田野目,2022/03/05 00:00,136
前田野目,2022/03/05 01:00,136
前田野目,2022/03/05 02:00,135
前田野目,2022/03/05 03:00,135
前田野目,2022/03/05 04:00,135
前田野目,2022/03/05 05:00,135
前田野目,2022/03/05 06:00,135
前田野目,2022/03/05 07:00,135
前田野目,2022/03/05 08:00,135
前田野目,2022/03/05 09:00,135
前田野目,2022/03/05 10:00,134
前田野目,2022/03/05 11:00,133
前田野目,2022/03/05 12:00,133
前田野目,2022/03/05 13:00,133
前田野目,2022/03/05 14:00,132
前田野目,2022/03/05 15:00,132
前田野目,2022/03/05 16:00,132
前田野目,2022/03/05 17:00,132
前田野目,2022/03/05 18:00,132
前田野目,2022/03/05 19:00,132
前田野目,2022/03/05 20:00,132
前田野目,2022/03/05 21:00,133
前田野目,2022/03/05 22:00,133
前田野目,2022/03/05 23:00,133
前田野目,2022/03/06 00:00,133
前田野目,2022/03/06 01:00,133
前田野目,2022/03/06 02:00,133
前田野目,2022/03/06 03:00,133
前田野目,2022/03/06 04:00,133
前田野目,2022/03/06 05:00,133
前田野目,2022/03/06 06:00,133
前田野目,2022/03/06 07:00,133
前田野目,2022/03/06 08:00,133
前田野目,2022/03/06 09:00,135
前田野目,2022/03/06 10:00,136
前田野目,2022/03/06 11:00,136
前田野目,2022/03/06 12:00,136
前田野目,2022/03/06 13:00,137
前田野目,2022/03/06 14:00,139
前田野目,2022/03/06 15:00,139
前田野目,2022/03/06 16:00,142
前田野目,2022/03/06 17:00,141
前田野目,2022/03/06 18:00,141
前田野目,2022/03/06 19:00,142
前田野目,2022/03/06 20:00,143
前田野目,2022/03/06 21:00,143
前田野目,2022/03/06 22:00,143
前田野目,2022/03/06 23:00,143
前田野目,2022/03/07 00:00,143
前田野目,2022/03/07 01:00,143
前田野目,2022/03/07 02:00,142
前田野目,2022/03/07 03:00,142
前田野目,2022/03/07 04:00,142
前田野目,2022/03/07 05:00,142
前田野目,2022/03/07 06:00,142
前田野目,2022/03/07 07:00,142
前田野目,2022/03/07 08:00,142
前田野目,2022/03/07 09:00,142
前田野目,2022/03/07 10:00,141
前田野目,2022/03/07 11:00,140
前田野目,2022/03/07 12:00,139
前田野目,2022/03/07 13:00,138
前田野目,2022/03/07 14:00,138
前田野目,2022/03/07 15:00,136
前田野目,2022/03/07 16:00,136
前田野目,2022/03/07 17:00,136
前田野目,2022/03/07 18:00,135
前田野目,2022/03/07 19:00,135
前田野目,2022/03/07 20:00,135
前田野目,2022/03/07 21:00,135
前田野目,2022/03/07 22:00,135
前田野目,2022/03/07 23:00,135
前田野目,2022/03/08 00:00,135
前田野目,2022/03/08 01:00,135
前田野目,2022/03/08 02:00,135
前田野目,2022/03/08 03:00,135
前田野目,2022/03/08 04:00,135
前田野目,2022/03/08 05:00,135
前田野目,2022/03/08 06:00,135
前田野目,2022/03/08 07:00,135
前田野目,2022/03/08 08:00,134
前田野目,2022/03/08 09:00,134
前田野目,2022/03/08 10:00,134
前田野目,2022/03/08 11:00,134
前田野目,2022/03/08 12:00,134
前田野目,2022/03/08 13:00,133
前田野目,2022/03/08 14:00,133
前田野目,2022/03/08 15:00,132
前田野目,2022/03/08 16:00,132
前田野目,2022/03/08 17:00,132
前田野目,2022/03/08 18:00,133
前田野目,2022/03/08 19:00,133
前田野目,2022/03/08 20:00,133
前田野目,2022/03/08 21:00,133
前田野目,2022/03/08 22:00,133
前田野目,2022/03/08 23:00,133
前田野目,2022/03/09 00:00,132
前田野目,2022/03/09 01:00,133
前田野目,2022/03/09 02:00,132
前田野目,2022/03/09 03:00,132
前田野目,2022/03/09 04:00,132
前田野目,2022/03/09 05:00,132
前田野目,2022/03/09 06:00,132
前田野目,2022/03/09 07:00,132
前田野目,2022/03/09 08:00,132
前田野目,2022/03/09 09:00,132
前田野目,2022/03/09 10:00,132
前田野目,2022/03/09 11:00,132
前田野目,2022/03/09 12:00,131
前田野目,2022/03/09 13:00,131
前田野目,2022/03/09 14:00,131
前田野目,2022/03/09 15:00,130
前田野目,2022/03/09 16:00,130
前田野目,2022/03/09 17:00,130
前田野目,2022/03/09 18:00,130
前田野目,2022/03/09 19:00,130
前田野目,2022/03/09 20:00,130
前田野目,2022/03/09 21:00,130
前田野目,2022/03/09 22:00,130
前田野目,2022/03/09 23:00,130
前田野目,2022/03/10 00:00,130
前田野目,2022/03/10 01:00,130
前田野目,2022/03/10 02:00,130
前田野目,2022/03/10 03:00,130
前田野目,2022/03/10 04:00,130
前田野目,2022/03/10 05:00,130
前田野目,2022/03/10 06:00,130
前田野目,2022/03/10 07:00,130
前田野目,2022/03/10 08:00,130
前田野目,2022/03/10 09:00,130
前田野目,2022/03/10 10:00,130
前田野目,2022/03/10 11:00,130
前田野目,2022/03/10 12:00,128
前田野目,2022/03/10 13:00,128
前田野目,2022/03/10 14:00,127
前田野目,2022/03/10 15:00,126
前田野目,2022/03/10 16:00,126
前田野目,2022/03/10 17:00,126
前田野目,2022/03/10 18:00,126
前田野目,2022/03/10 19:00,126
前田野目,2022/03/10 20:00,126
前田野目,2022/03/10 21:00,126
前田野目,2022/03/10 22:00,126
前田野目,2022/03/10 23:00,126
前田野目,2022/03/11 00:00,126
前田野目,2022/03/11 01:00,126
前田野目,2022/03/11 02:00,126
前田野目,2022/03/11 03:00,126
前田野目,2022/03/11 04:00,126
前田野目,2022/03/11 05:00,126
前田野目,2022/03/11 06:00,126
前田野目,2022/03/11 07:00,126
前田野目,2022/03/11 08:00,126
前田野目,2022/03/11 09:00,126
前田野目,2022/03/11 10:00,124
前田野目,2022/03/11 11:00,124
前田野目,2022/03/11 12:00,123
前田野目,2022/03/11 13:00,122
前田野目,2022/03/11 14:00,122
前田野目,2022/03/11 15:00,122
前田野目,2022/03/11 16:00,121
前田野目,2022/03/11 17:00,121
前田野目,2022/03/11 18:00,121
前田野目,2022/03/11 19:00,121
前田野目,2022/03/11 20:00,120
前田野目,2022/03/11 21:00,120
前田野目,2022/03/11 22:00,120
前田野目,2022/03/11 23:00,120
前田野目,2022/03/12 00:00,119
前田野目,2022/03/12 01:00,119
前田野目,2022/03/12 02:00,120
前田野目,2022/03/12 03:00,119
前田野目,2022/03/12 04:00,120
前田野目,2022/03/12 05:00,119
前田野目,2022/03/12 06:00,119
前田野目,2022/03/12 07:00,119
前田野目,2022/03/12 08:00,120
前田野目,2022/03/12 09:00,119
前田野目,2022/03/12 10:00,120
前田野目,2022/03/12 11:00,119
前田野目,2022/03/12 12:00,118
前田野目,2022/03/12 13:00,117
前田野目,2022/03/12 14:00,117
前田野目,2022/03/12 15:00,117
前田野目,2022/03/12 16:00,116
前田野目,2022/03/12 17:00,116
前田野目,2022/03/12 18:00,117
前田野目,2022/03/12 19:00,117
前田野目,2022/03/12 20:00,117
前田野目,2022/03/12 21:00,117
前田野目,2022/03/12 22:00,117
前田野目,2022/03/12 23:00,117
前田野目,2022/03/13 00:00,117
前田野目,2022/03/13 01:00,117
前田野目,2022/03/13 02:00,117
前田野目,2022/03/13 03:00,117
前田野目,2022/03/13 04:00,117
前田野目,2022/03/13 05:00,116
前田野目,2022/03/13 06:00,117
前田野目,2022/03/13 07:00,116
前田野目,2022/03/13 08:00,116
前田野目,2022/03/13 09:00,116
前田野目,2022/03/13 10:00,116
前田野目,2022/03/13 11:00,116
前田野目,2022/03/13 12:00,117
前田野目,2022/03/13 13:00,116
前田野目,2022/03/13 14:00,116
前田野目,2022/03/13 15:00,116
前田野目,2022/03/13 16:00,116
前田野目,2022/03/13 17:00,116
前田野目,2022/03/13 18:00,115
前田野目,2022/03/13 19:00,115
前田野目,2022/03/13 20:00,115
前田野目,2022/03/13 21:00,115
前田野目,2022/03/13 22:00,115
前田野目,2022/03/13 23:00,115
前田野目,2022/03/14 00:00,115
前田野目,2022/03/14 01:00,114
前田野目,2022/03/14 02:00,114
前田野目,2022/03/14 03:00,114
前田野目,2022/03/14 04:00,114
前田野目,2022/03/14 05:00,115
前田野目,2022/03/14 06:00,114
前田野目,2022/03/14 07:00,114
前田野目,2022/03/14 08:00,113
前田野目,2022/03/14 09:00,113
前田野目,2022/03/14 10:00,113
前田野目,2022/03/14 11:00,113
前田野目,2022/03/14 12:00,112
前田野目,2022/03/14 13:00,111
前田野目,2022/03/14 14:00,110
前田野目,2022/03/14 15:00,110
前田野目,2022/03/14 16:00,109
前田野目,2022/03/14 17:00,109
前田野目,2022/03/14 18:00,109
前田野目,2022/03/14 19:00,108
前田野目,2022/03/14 20:00,108
前田野目,2022/03/14 21:00,109
前田野目,2022/03/14 22:00,108
前田野目,2022/03/14 23:00,108
前田野目,2022/03/15 00:00,108
前田野目,2022/03/15 01:00,108
前田野目,2022/03/15 02:00,108
前田野目,2022/03/15 03:00,108
前田野目,2022/03/15 04:00,107
前田野目,2022/03/15 05:00,107
前田野目,2022/03/15 06:00,106
前田野目,2022/03/15 07:00,106
前田野目,2022/03/15 08:00,106
前田野目,2022/03/15 09:00,106
前田野目,2022/03/15 10:00,105
前田野目,2022/03/15 11:00,104
前田野目,2022/03/15 12:00,102
前田野目,2022/03/15 13:00,102
前田野目,2022/03/15 14:00,102
前田野目,2022/03/15 15:00,101
前田野目,2022/03/15 16:00,100
前田野目,2022/03/15 17:00,100
前田野目,2022/03/15 18:00,100
前田野目,2022/03/15 19:00,100
前田野目,2022/03/15 20:00,100
前田野目,2022/03/15 21:00,100
前田野目,2022/03/15 22:00,99
前田野目,2022/03/15 23:00,99
前田野目,2022/03/16 00:00,99
前田野目,2022/03/16 01:00,99
前田野目,2022/03/16 02:00,99
前田野目,2022/03/16 03:00,99
前田野目,2022/03/16 04:00,99
前田野目,2022/03/16 05:00,99
前田野目,2022/03/16 06:00,99
前田野目,2022/03/16 07:00,99
前田野目,2022/03/16 08:00,99
前田野目,2022/03/16 09:00,99
前田野目,2022/03/16 10:00,99
前田野目,2022/03/16 11:00,99
前田野目,2022/03/16 12:00,98
前田野目,2022/03/16 13:00,97
前田野目,2022/03/16 14:00,96
前田野目,2022/03/16 15:00,96
前田野目,2022/03/16 16:00,96
前田野目,2022/03/16 17:00,96
前田野目,2022/03/16 18:00,96
前田野目,2022/03/16 19:00,96
前田野目,2022/03/16 20:00,96
前田野目,2022/03/16 21:00,96
前田野目,2022/03/16 22:00,96
前田野目,2022/03/16 23:00,96
前田野目,2022/03/17 00:00,96
前田野目,2022/03/17 01:00,96
前田野目,2022/03/17 02:00,96
前田野目,2022/03/17 03:00,96
前田野目,2022/03/17 04:00,97
前田野目,2022/03/17 05:00,97
前田野目,2022/03/17 06:00,97
前田野目,2022/03/17 07:00,97
前田野目,2022/03/17 08:00,97
前田野目,2022/03/17 09:00,97
前田野目,2022/03/17 10:00,96
前田野目,2022/03/17 11:00,96
前田野目,2022/03/17 12:00,95
前田野目,2022/03/17 14:00,95
前田野目,2022/03/17 15:00,94
前田野目,2022/03/17 16:00,94
前田野目,2022/03/17 17:00,94
前田野目,2022/03/17 18:00,94
前田野目,2022/03/17 19:00,95
前田野目,2022/03/17 20:00,95
前田野目,2022/03/17 21:00,95
前田野目,2022/03/17 22:00,95
前田野目,2022/03/17 23:00,95
前田野目,2022/03/18 00:00,95
前田野目,2022/03/18 01:00,96
前田野目,2022/03/18 02:00,96
前田野目,2022/03/18 03:00,96
前田野目,2022/03/18 04:00,95
前田野目,2022/03/18 05:00,95
前田野目,2022/03/18 06:00,95
前田野目,2022/03/18 07:00,96
前田野目,2022/03/18 08:00,96
前田野目,2022/03/18 09:00,96
前田野目,2022/03/18 10:00,96
前田野目,2022/03/18 11:00,95
前田野目,2022/03/18 12:00,94
前田野目,2022/03/18 13:00,94
前田野目,2022/03/18 14:00,93
前田野目,2022/03/18 15:00,93
前田野目,2022/03/18 16:00,93
前田野目,2022/03/18 17:00,93
前田野目,2022/03/18 18:00,92
前田野目,2022/03/18 19:00,93
前田野目,2022/03/18 20:00,93
前田野目,2022/03/18 21:00,93
前田野目,2022/03/18 22:00,94
前田野目,2022/03/18 23:00,94
前田野目,2022/03/19 00:00,93
前田野目,2022/03/19 01:00,93
前田野目,2022/03/19 02:00,94
前田野目,2022/03/19 03:00,95
前田野目,2022/03/19 04:00,97
前田野目,2022/03/19 05:00,100
前田野目,2022/03/19 06:00,103
前田野目,2022/03/19 07:00,106
前田野目,2022/03/19 08:00,107
前田野目,2022/03/19 09:00,107
前田野目,2022/03/19 10:00,107
前田野目,2022/03/19 11:00,106
前田野目,2022/03/19 12:00,105
前田野目,2022/03/19 13:00,104
前田野目,2022/03/19 14:00,102
前田野目,2022/03/19 15:00,102
前田野目,2022/03/19 16:00,101
前田野目,2022/03/19 17:00,100
前田野目,2022/03/19 18:00,100
前田野目,2022/03/19 19:00,100
前田野目,2022/03/19 20:00,99
前田野目,2022/03/19 21:00,99
前田野目,2022/03/19 22:00,99
前田野目,2022/03/19 23:00,99
前田野目,2022/03/20 00:00,99
前田野目,2022/03/20 01:00,99
前田野目,2022/03/20 02:00,99
前田野目,2022/03/20 03:00,99
前田野目,2022/03/20 04:00,99
前田野目,2022/03/20 05:00,99
前田野目,2022/03/20 06:00,99
前田野目,2022/03/20 07:00,99
前田野目,2022/03/20 08:00,99
前田野目,2022/03/20 09:00,99
前田野目,2022/03/20 10:00,98
前田野目,2022/03/20 11:00,99
前田野目,2022/03/20 12:00,98
前田野目,2022/03/20 13:00,98
前田野目,2022/03/20 14:00,98
前田野目,2022/03/20 15:00,98
前田野目,2022/03/20 16:00,98
前田野目,2022/03/20 17:00,98
前田野目,2022/03/20 18:00,98
前田野目,2022/03/20 19:00,98
前田野目,2022/03/20 20:00,98
前田野目,2022/03/20 21:00,98
前田野目,2022/03/20 22:00,99
前田野目,2022/03/20 23:00,99
前田野目,2022/03/21 00:00,99
前田野目,2022/03/21 02:00,99
前田野目,2022/03/21 03:00,99
前田野目,2022/03/21 04:00,99
前田野目,2022/03/21 05:00,99
前田野目,2022/03/21 06:00,99
前田野目,2022/03/21 07:00,99
前田野目,2022/03/21 08:00,99
前田野目,2022/03/21 09:00,99
前田野目,2022/03/21 10:00,98
前田野目,2022/03/21 11:00,98
前田野目,2022/03/21 12:00,98
前田野目,2022/03/21 13:00,97
前田野目,2022/03/21 14:00,97
前田野目,2022/03/21 15:00,97
前田野目,2022/03/21 16:00,97
前田野目,2022/03/21 17:00,97
前田野目,2022/03/21 18:00,97
前田野目,2022/03/21 19:00,97
前田野目,2022/03/21 20:00,97
前田野目,2022/03/21 21:00,97
前田野目,2022/03/21 22:00,98
前田野目,2022/03/21 23:00,98
前田野目,2022/03/22 00:00,98
前田野目,2022/03/22 01:00,98
前田野目,2022/03/22 02:00,98
前田野目,2022/03/22 03:00,97
前田野目,2022/03/22 04:00,97
前田野目,2022/03/22 05:00,97
前田野目,2022/03/22 06:00,97
前田野目,2022/03/22 07:00,97
前田野目,2022/03/22 08:00,97
前田野目,2022/03/22 09:00,97
前田野目,2022/03/22 10:00,97
前田野目,2022/03/22 11:00,97
前田野目,2022/03/22 12:00,96
前田野目,2022/03/22 13:00,96
前田野目,2022/03/22 14:00,96
前田野目,2022/03/22 15:00,95
前田野目,2022/03/22 16:00,95
前田野目,2022/03/22 17:00,95
前田野目,2022/03/22 18:00,95
前田野目,2022/03/22 19:00,95
前田野目,2022/03/22 20:00,95
前田野目,2022/03/22 21:00,95
前田野目,2022/03/22 22:00,95
前田野目,2022/03/22 23:00,95
前田野目,2022/03/23 00:00,95
前田野目,2022/03/23 01:00,95
前田野目,2022/03/23 02:00,95
前田野目,2022/03/23 03:00,95
前田野目,2022/03/23 04:00,95
前田野目,2022/03/23 05:00,95
前田野目,2022/03/23 06:00,95
前田野目,2022/03/23 07:00,95
前田野目,2022/03/23 08:00,95
前田野目,2022/03/23 09:00,95
前田野目,2022/03/23 10:00,95
前田野目,2022/03/23 11:00,95
前田野目,2022/03/23 13:00,94
前田野目,2022/03/23 14:00,94
前田野目,2022/03/23 15:00,93
前田野目,2022/03/23 16:00,93
前田野目,2022/03/23 17:00,93
前田野目,2022/03/23 21:00,93
前田野目,2022/03/23 22:00,93
前田野目,2022/03/23 23:00,93
前田野目,2022/03/24 00:00,93
前田野目,2022/03/24 01:00,93
前田野目,2022/03/24 02:00,93
前田野目,2022/03/24 03:00,93
前田野目,2022/03/24 04:00,93
前田野目,2022/03/24 06:00,93
前田野目,2022/03/24 08:00,93
前田野目,2022/03/24 09:00,93
前田野目,2022/03/24 10:00,93
前田野目,2022/03/24 12:00,92
前田野目,2022/03/24 13:00,92
前田野目,2022/03/24 14:00,91
前田野目,2022/03/24 15:00,91
前田野目,2022/03/24 16:00,91
前田野目,2022/03/24 17:00,90
前田野目,2022/03/24 18:00,90
前田野目,2022/03/24 19:00,90
前田野目,2022/03/24 20:00,90
前田野目,2022/03/24 22:00,90
前田野目,2022/03/24 23:00,90
前田野目,2022/03/25 00:00,90
前田野目,2022/03/25 02:00,90
前田野目,2022/03/25 05:00,89
前田野目,2022/03/25 06:00,89
前田野目,2022/03/25 07:00,89
前田野目,2022/03/25 08:00,89
前田野目,2022/03/25 09:00,90
前田野目,2022/03/25 10:00,89
前田野目,2022/03/25 11:00,87
前田野目,2022/03/25 12:00,87
前田野目,2022/03/25 13:00,86
前田野目,2022/04/08 15:00,8
前田野目,2022/04/08 16:00,8
前田野目,2022/04/08 17:00,7
前田野目,2022/04/08 18:00,8
前田野目,2022/04/08 19:00,8
前田野目,2022/04/08 20:00,7
前田野目,2022/04/08 21:00,8
前田野目,2022/04/08 22:00,7
前田野目,2022/04/08 23:00,7
前田野目,2022/04/09 00:00,7
前田野目,2022/04/09 01:00,7
前田野目,2022/04/09 02:00,7
前田野目,2022/04/09 03:00,7
前田野目,2022/04/09 04:00,7
前田野目,2022/04/09 05:00,7
前田野目,2022/04/09 06:00,7
前田野目,2022/04/09 07:00,8
前田野目,2022/04/09 08:00,8
前田野目,2022/04/09 09:00,7
前田野目,2022/04/09 10:00,6
前田野目,2022/04/09 11:00,5
前田野目,2022/04/09 12:00,2
前田野目,2022/04/09 13:00,2
前田野目,2022/04/09 14:00,0
前田野目,2022/04/09 15:00,0
前田野目,2022/04/09 16:00,0
前田野目,2022/04/09 17:00,0
前田野目,2022/04/09 18:00,0
前田野目,2022/04/09 19:00,0
前田野目,2022/04/09 20:00,0
前田野目,2022/04/09 21:00,0
前田野目,2022/04/09 22:00,0
前田野目,2022/04/09 23:00,0
前田野目,2022/04/10 00:00,0
前田野目,2022/04/10 01:00,0
前田野目,2022/04/10 02:00,0
前田野目,2022/04/10 03:00,0
前田野目,2022/04/10 04:00,0
前田野目,2022/04/10 05:00,0
前田野目,2022/04/10 06:00,0
前田野目,2022/04/10 07:00,0
前田野目,2022/04/10 08:00,0
前田野目,2022/04/10 09:00,0
前田野目,2022/04/10 10:00,0
前田野目,2022/04/10 11:00,0
前田野目,2022/04/10 12:00,0
前田野目,2022/04/10 13:00,0
前田野目,2022/04/10 14:00,0
前田野目,2022/04/10 15:00,0
前田野目,2022/04/10 16:00,0
前田野目,2022/04/10 17:00,0
前田野目,2022/04/10 18:00,0
前田野目,2022/04/10 19:00,0
前田野目,2022/04/10 20:00,0
前田野目,2022/04/10 21:00,0
前田野目,2022/04/10 22:00,0
前田野目,2022/04/10 23:00,0
前田野目,2022/04/11 00:00,0
前田野目,2022/04/11 01:00,0
前田野目,2022/04/11 02:00,0
前田野目,2022/04/11 03:00,0
前田野目,2022/04/11 04:00,0
前田野目,2022/04/11 05:00,0
前田野目,2022/04/11 06:00,0
前田野目,2022/04/11 07:00,0
前田野目,2022/04/11 08:00,0
前田野目,2022/04/11 09:00,0
前田野目,2022/04/11 10:00,0
前田野目,2022/04/11 11:00,0
前田野目,2022/04/11 12:00,0
前田野目,2022/04/11 13:00,0
前田野目,2022/04/11 14:00,0
前田野目,2022/04/11 15:00,0
前田野目,2022/04/11 16:00,0
前田野目,2022/04/11 17:00,0
前田野目,2022/04/11 18:00,0
前田野目,2022/04/11 19:00,0
前田野目,2022/04/11 20:00,0
前田野目,2022/04/11 21:00,0
前田野目,2022/04/11 22:00,0
前田野目,2022/04/11 23:00,0
前田野目,2022/04/12 00:00,0
前田野目,2022/04/12 01:00,0
前田野目,2022/04/12 02:00,0
前田野目,2022/04/12 03:00,0
前田野目,2022/04/12 04:00,0
前田野目,2022/04/12 05:00,0
前田野目,2022/04/12 06:00,0
前田野目,2022/04/12 07:00,0
前田野目,2022/04/12 08:00,0
前田野目,2022/04/12 09:00,0
前田野目,2022/04/12 10:00,0
前田野目,2022/04/12 11:00,0
前田野目,2022/04/12 12:00,0
前田野目,2022/04/12 13:00,0
前田野目,2022/04/12 14:00,0
前田野目,2022/04/12 15:00,0
前田野目,2022/04/12 16:00,0
前田野目,2022/04/12 17:00,0
前田野目,2022/04/12 18:00,0
前田野目,2022/04/12 19:00,0
前田野目,2022/04/12 20:00,0
前田野目,2022/04/12 21:00,0
前田野目,2022/04/12 22:00,0
前田野目,2022/04/12 23:00,0
前田野目,2022/04/13 00:00,0
前田野目,2022/04/13 01:00,0
前田野目,2022/04/13 02:00,0
前田野目,2022/04/13 03:00,0
前田野目,2022/04/13 04:00,0
前田野目,2022/04/13 05:00,0
前田野目,2022/04/13 06:00,0
前田野目,2022/04/13 07:00,0
前田野目,2022/04/13 08:00,0
前田野目,2022/04/13 09:00,0
前田野目,2022/04/13 10:00,0
前田野目,2022/04/13 11:00,0
前田野目,2022/04/13 12:00,0
前田野目,2022/04/13 13:00,0
前田野目,2022/04/13 14:00,0
前田野目,2022/04/13 15:00,0
前田野目,2022/04/13 16:00,0
前田野目,2022/04/13 17:00,0
前田野目,2022/04/13 18:00,0
前田野目,2022/04/13 19:00,0
前田野目,2022/04/13 20:00,0
前田野目,2022/04/13 21:00,0
前田野目,2022/04/13 22:00,0
前田野目,2022/04/13 23:00,0
前田野目,2022/04/14 00:00,0
前田野目,2022/04/14 01:00,0
前田野目,2022/04/14 02:00,0
前田野目,2022/04/14 03:00,0
前田野目,2022/04/14 04:00,0
前田野目,2022/04/14 05:00,0
前田野目,2022/04/14 06:00,0
前田野目,2022/04/14 07:00,0
前田野目,2022/04/14 08:00,0
前田野目,2022/04/14 09:00,0
前田野目,2022/04/14 10:00,0
前田野目,2022/04/14 11:00,0
前田野目,2022/04/14 12:00,0
前田野目,2022/04/14 13:00,0
前田野目,2022/04/14 14:00,0
前田野目,2022/04/14 15:00,0
前田野目,2022/04/14 16:00,0
前田野目,2022/04/14 17:00,0
前田野目,2022/04/14 18:00,0
前田野目,2022/04/14 19:00,0
前田野目,2022/04/14 20:00,0
前田野目,2022/04/14 21:00,0
前田野目,2022/04/14 22:00,0
前田野目,2022/04/14 23:00,0
前田野目,2022/04/15 00:00,0
前田野目,2022/04/15 01:00,0
前田野目,2022/04/15 02:00,0
前田野目,2022/04/15 03:00,0
前田野目,2022/04/15 04:00,0
前田野目,2022/04/15 05:00,0
前田野目,2022/04/15 06:00,0
前田野目,2022/04/15 07:00,0
前田野目,2022/04/15 08:00,0
前田野目,2022/04/15 09:00,0
前田野目,2022/04/15 10:00,0
前田野目,2022/04/15 11:00,0
前田野目,2022/04/15 12:00,0
前田野目,2022/04/15 13:00,0
前田野目,2022/04/15 14:00,0
前田野目,2022/04/15 15:00,0
前田野目,2022/04/15 16:00,0
前田野目,2022/04/15 17:00,0
前田野目,2022/04/15 18:00,0
前田野目,2022/04/15 19:00,0
前田野目,2022/04/15 20:00,0
前田野目,2022/04/15 21:00,0
前田野目,2022/04/15 22:00,0
前田野目,2022/04/15 23:00,0
前田野目,2022/04/16 00:00,0
前田野目,2022/04/16 01:00,0
前田野目,2022/04/16 02:00,0
前田野目,2022/04/16 03:00,0
前田野目,2022/04/16 04:00,0
前田野目,2022/04/16 05:00,0
前田野目,2022/04/16 06:00,0
前田野目,2022/04/16 07:00,0
前田野目,2022/04/16 08:00,0
前田野目,2022/04/16 09:00,0
前田野目,2022/04/16 10:00,0
前田野目,2022/04/16 11:00,0
前田野目,2022/04/16 12:00,0
前田野目,2022/04/16 13:00,0
前田野目,2022/04/16 14:00,0
前田野目,2022/04/16 15:00,0
前田野目,2022/04/16 16:00,0
前田野目,2022/04/16 17:00,0
前田野目,2022/04/16 18:00,0
前田野目,2022/04/16 19:00,0
前田野目,2022/04/16 20:00,0
前田野目,2022/04/16 21:00,0
前田野目,2022/04/16 22:00,0
前田野目,2022/04/16 23:00,0
前田野目,2022/04/17 00:00,0
前田野目,2022/04/17 01:00,0
前田野目,2022/04/17 02:00,0
前田野目,2022/04/17 03:00,0
前田野目,2022/04/17 04:00,0
前田野目,2022/04/17 05:00,0
前田野目,2022/04/17 06:00,0
前田野目,2022/04/17 07:00,0
前田野目,2022/04/17 08:00,0
前田野目,2022/04/17 09:00,0
前田野目,2022/04/17 10:00,0
前田野目,2022/04/17 11:00,0
前田野目,2022/04/17 12:00,0
前田野目,2022/04/17 13:00,0
前田野目,2022/04/17 14:00,0
前田野目,2022/04/17 15:00,0
前田野目,2022/04/17 16:00,0
前田野目,2022/04/17 17:00,0
前田野目,2022/04/17 18:00,0
前田野目,2022/04/17 19:00,0
前田野目,2022/04/17 20:00,0
前田野目,2022/04/17 21:00,0
前田野目,2022/04/17 22:00,0
前田野目,2022/04/17 23:00,0
前田野目,2022/04/18 00:00,0
前田野目,2022/04/18 01:00,0
前田野目,2022/04/18 02:00,0
前田野目,2022/04/18 03:00,0
前田野目,2022/04/18 04:00,0
前田野目,2022/04/18 05:00,0
前田野目,2022/04/18 06:00,0
前田野目,2022/04/18 07:00,0
前田野目,2022/04/18 08:00,0
前田野目,2022/04/18 09:00,0
前田野目,2022/04/18 10:00,0
前田野目,2022/04/18 11:00,0
前田野目,2022/04/18 12:00,0
前田野目,2022/04/18 13:00,0
前田野目,2022/04/18 14:00,0
前田野目,2022/04/18 15:00,0
前田野目,2022/04/18 16:00,0
前田野目,2022/04/18 17:00,0
前田野目,2022/04/18 18:00,0
前田野目,2022/04/18 19:00,0
前田野目,2022/04/18 20:00,0
前田野目,2022/04/18 21:00,0
前田野目,2022/04/18 22:00,0
前田野目,2022/04/18 23:00,0
前田野目,2022/04/19 00:00,0
前田野目,2022/04/19 01:00,0
前田野目,2022/04/19 02:00,0
前田野目,2022/04/19 03:00,0
前田野目,2022/04/19 04:00,0
前田野目,2022/04/19 05:00,0
前田野目,2022/04/19 06:00,0
前田野目,2022/04/19 07:00,0
前田野目,2022/04/19 08:00,0
前田野目,2022/04/19 09:00,0
前田野目,2022/04/19 10:00,0
前田野目,2022/04/19 11:00,0
前田野目,2022/04/19 12:00,0
前田野目,2022/04/19 13:00,0
前田野目,2022/04/19 14:00,0
前田野目,2022/04/19 15:00,0
前田野目,2022/04/19 16:00,0
前田野目,2022/04/19 17:00,0
前田野目,2022/04/19 18:00,0
前田野目,2022/04/19 19:00,0
前田野目,2022/04/19 20:00,0
前田野目,2022/04/19 21:00,0
前田野目,2022/04/19 22:00,0
前田野目,2022/04/19 23:00,0
前田野目,2022/04/20 00:00,0
前田野目,2022/04/20 01:00,0
前田野目,2022/04/20 02:00,0
前田野目,2022/04/20 03:00,0
前田野目,2022/04/20 04:00,0
前田野目,2022/04/20 05:00,0
前田野目,2022/04/20 06:00,0
前田野目,2022/04/20 07:00,0
前田野目,2022/04/20 08:00,0
前田野目,2022/04/20 09:00,0
前田野目,2022/04/20 10:00,0
前田野目,2022/04/20 11:00,0
前田野目,2022/04/20 12:00,0
前田野目,2022/04/20 13:00,0
前田野目,2022/04/20 14:00,0
前田野目,2022/04/20 15:00,0
前田野目,2022/04/20 16:00,0
前田野目,2022/04/20 17:00,0